Miscellaneous Local Product
Issued by NWS Hastings, NE

Home | Current Version | Previous Version | Graphics & Text | Print | Product List | Glossary On
Versions: 1 2 3 4 5 6 7 8 9 10 11 12 13 14 15 16 17 18 19 20 21 22 23 24 25 26 27 28 29 30 31 32 33 34 35 36 37 38 39 40 41 42 43 44 45 46 47 48 49 50
000
AXUS43 KGID 170902
MISGRI

GID CWA HOURLY WEATHER ROUNDUP
NATIONAL WEATHER SERVICE HASTINGS NE
300 AM CST SUN DEC 17 2017

NOTE: "FAIR" INDICATES FEW OR NO CLOUDS BELOW 12,000 FEET WITH NO
SIGNIFICANT WEATHER AND/OR OBSTRUCTIONS TO VISIBILITY.

...SOUTH CENTRAL NEBRASKA...

CITY           SKY/WX    TMP DP  RH WIND       PRES   REMARKS
GRAND ISLAND   CLOUDY    30  29  96 N15       29.96S WCI  19
KEARNEY        CLOUDY    30  29  96 N17       29.94F WCI  18
HASTINGS       CLOUDY    32  28  85 N14       29.93F WCI  22
ORD            CLOUDY    35  31  85 N7        30.00R WCI  29
YORK           MOCLDY    32  32 100 NE13      29.95R WCI  22
AURORA         CLOUDY    31  29  92 N15       29.95F WCI  20
LEXINGTON      CLOUDY    35  31  87 NE13      29.97F WCI  26
HOLDREGE       CLOUDY    31  31  97 N14G20    29.93F WCI  21
HEBRON         CLOUDY    37  28  72 NE3       29.90F

...NEBRASKA PANHANDLE...

CITY           SKY/WX    TMP DP  RH WIND       PRES   REMARKS
CHADRON        CLOUDY    29  27  92 CALM      30.04R
ALLIANCE       CLOUDY    30  28  92 N6        29.99R WCI  24
SCOTTSBLUFF    CLOUDY    31  28  89 E7        29.99F WCI  24
SIDNEY         CLOUDY    30  29  96 NE10      29.97R FOG     WCI  21

...WESTERN AND NORTH CENTRAL NEBRASKA...

CITY           SKY/WX    TMP DP  RH WIND       PRES   REMARKS
VALENTINE      CLOUDY    34  30  85 N5        30.01S WCI  30
AINSWORTH      CLOUDY    34  33  97 NE3       30.01R
ONEILL         CLOUDY    33  32  98 CALM      30.04R
BROKEN BOW     CLOUDY    36  31  82 NE10      30.00R WCI  28
IMPERIAL       MIX PCPN  34  34 100 NE9       29.98R WCI  27
NORTH PLATTE   CLOUDY    37  33  85 NE7       30.00R WCI  32
MCCOOK         CLOUDY    36  32  85 NE12      29.96R WCI  28

...EASTERN NEBRASKA...

CITY           SKY/WX    TMP DP  RH WIND       PRES   REMARKS
NORFOLK        CLOUDY    31  28  89 N8        30.00F WCI  23
SO SIOUX CITY  CLOUDY    24  23  96 NW5       30.05R WCI  18
TEKAMAH        PTCLDY    27  22  81 N14       29.99F WCI  16
COLUMBUS       PTCLDY    30  27  88 N9        29.99F WCI  22
ALBION         CLOUDY    33  30  89 N10       29.99F WCI  25
OMAHA EPPLEY   CLOUDY    30  24  78 N9        29.97F WCI  22
OFFUTT AFB     PTCLDY    33  27  77 N7        29.94F WCI  27
MILLARD        PTCLDY    35  29  79 CALM      29.96S
LINCOLN        MOCLDY    34  27  75 N8        29.95F WCI  27
NEBRASKA CITY  CLOUDY    34  27  74 NE3       29.93F
BEATRICE       CLOUDY    36  28  71 NE9       29.91F WCI  29
FALLS CITY     CLOUDY    39  26  59 CALM      29.94R

...NORTHERN KANSAS...

CITY           SKY/WX    TMP DP  RH WIND       PRES   REMARKS
GOODLAND       CLOUDY    33  29  85 N15       29.92R WCI  23
HILL CITY      LGT RAIN  34  31  88 N14       29.92R WCI  25
NORTON         SUNNY     30  27  86 N10       29.92R WCI  21
PHILLIPSBURG   PTCLDY    36  30  80 NW8       29.92R WCI  29
SMITH CENTER   MOCLDY    34  27  75 NE6       29.91R WCI  29
HAYS           MOCLDY    37  25  61 N5        29.88R WCI  33
RUSSELL        CLOUDY    40  28  62 NE5       29.87R
CONCORDIA      CLOUDY    38  28  67 CALM      29.91R
SALINA         LGT RAIN  46  40  79 S17       29.92R
TOPEKA         LGT RAIN  47  39  74 S8        29.97R



USA.gov is the U.S. government's official web portal to all federal, state and local government web resources and services.